INTELSAT 15 (IS-15)

Last updated on Tue Sep 22 2026 00:03:11 GMT+0000 (Coordinated Universal Time)

1 36106U 09067A 26264.07826888 -.00000189 00000+0 00000+0 0 9992 2 36106 0.0199 93.8050 0002367 90.6370 288.8600 1.00272416 42196
UTC large
Height (km)
Speed (km/s)
/
Latitude / Longitude
Inclination (degrees)
Orbital Period (minutes)
Azimuth
Elevation
Range (km)
Doppler Factor

Next 0 passes for location: London (51.5072 / 0.1276)

No passes found over London.
INTELSAT 15 (IS-15)